Location: Stanford
(52.2833°N, 2.4333°W)
Time: 01:05:10
(UTC+00:00)

Okean O Rocket - Pass Details

Date: 22 January 2021
Orbit: 622 x 645 km, 98.2° (Epoch: 28 February)

Event Time Altitude Azimuth Distance (km) Brightness Sun altitude
Rises 17:17:50 0° 156° (SSE) 2,943 5.0 -6.1°
Reaches altitude 10° 17:20:02 10° 153° (SSE) 2,036 4.2 -6.4°
Maximum altitude 17:24:27 68° 71° (ENE) 694 1.6 -7.0°
Drops below altitude 10° 17:28:52 10° 350° (N) 2,039 4.1 -7.6°
Sets 17:31:04 0° 347° (NNW) 2,949 4.9 -8.0°
